Regional Weather Roundup
Issued by NWS

Home | Current Version | Previous Version | Text Only | Print | Product List | Glossary On
Versions: 1 2 3 4 5 6 7 8 9 10 11 12 13 14 15 16 17 18 19 20 21 22 23 24 25 26 27 28 29 30 31 32 33 34 35 36 37 38 39 40 41 42 43 44 45 46 47 48 49 50
000
ASUS43 KMKX 241411
RWRWI

WISCONSIN REGIONAL WEATHER ROUNDUP
NATIONAL WEATHER SERVICE MILWAUKEE/SULLIVAN WI
900 AM CDT SUN SEP 24 2017

NOTE: "FAIR" INDICATES FEW OR NO CLOUDS BELOW 12,000 FEET WITH NO
SIGNIFICANT WEATHER AND/OR OBSTRUCTIONS TO VISIBILITY.

WIZ001-002-006>008-014>016-023>028-241500-
NORTHWEST WISCONSIN

CITY           SKY/WX    TMP DP  RH WIND       PRES   REMARKS
SUPERIOR ARPT  FOG       63  63 100 NE5       29.95S VSB 1/4
ASHLAND        SUNNY     75  67  76 W3        29.97S
HAYWARD        SUNNY     73  64  73 S7        29.99S
SIREN          SUNNY     74  63  69 S8        29.96S
CUMBERLAND     SUNNY     70  63  78 S3        30.00S
RICE LAKE      SUNNY     73  64  73 S3        30.01R
CHETEK         SUNNY     72  66  81 S6        30.00S
LADYSMITH      SUNNY     74  64  72 S6        30.04S
EAU CLAIRE     SUNNY     75  63  66 S7        29.99S
MENOMONIE      SUNNY     72  65  78 SE6       29.99S
NEW RICHMOND   PTSUNNY   74  62  65 S10       29.98S
OSCEOLA        PTSUNNY   73  63  70 SE9       29.99S
$$

WIZ003>005-009-010-017-018-241500-
NORTH CENTRAL WISCONSIN

CITY           SKY/WX    TMP DP  RH WIND       PRES   REMARKS
MANITOWISH WTR SUNNY     70  68  94 S7        30.05F
ARBOR VITAE    SUNNY     74  66  74 S9        30.06F
WOODRUFF       SUNNY     74  66  74 S9        30.06F
RHINELANDER    SUNNY     72  65  78 S5        30.09S
EAGLE RIVER    SUNNY     73  63  69 CALM      30.07S
LAND O LAKES   SUNNY     71  64  77 S3        30.09S
PHILLIPS       SUNNY     72  65  78 S6        30.04S
TOMAHAWK       SUNNY     70  65  84 CALM      30.07F
MEDFORD        SUNNY     70  64  80 S7        30.06S
MERRILL        SUNNY     71  66  83 CALM      30.07S
$$

WIZ029-030-035-036-043>047-241500-
CENTRAL WISCONSIN

CITY           SKY/WX    TMP DP  RH WIND       PRES   REMARKS
WAUSAU         SUNNY     71  65  81 SE3       30.05S
MOSINEE        SUNNY     72  66  83 SE3       30.07S
MARSHFIELD     SUNNY     73  64  73 S8        30.05S
STEVENS POINT  SUNNY     73  66  76 S3        30.07S
WAUPACA        SUNNY     73  71  93 SE5       30.08R
WAUTOMA        SUNNY     73  67  81 S5        30.07S
WISC RAPIDS    SUNNY     76  66  71 S5        30.07R
CAMP DOUGLAS   SUNNY     72  66  83 SE5       30.05R
$$

WIZ011>013-019>022-031-037>040-048>050-241500-
NORTHEAST WISCONSIN

CITY           SKY/WX    TMP DP  RH WIND       PRES   REMARKS
ANTIGO         SUNNY     73  66  80 S5        30.09S
SHAWANO        SUNNY     75  67  74 SW3       30.07R
OCONTO         SUNNY     74  67  80 S5        30.07R
STURGEON BAY   SUNNY     75  68  78 S9        30.09S
GREEN BAY      SUNNY     76  68  76 S6        30.08R
MANITOWOC      SUNNY     74  69  85 S7        30.09S
APPLETON       SUNNY     73  63  68 S7        30.07S
CLINTONVILLE   SUNNY     73  66  78 S3        30.07R
OSHKOSH        SUNNY     75  67  76 S9        30.07S
$$

WIZ032>034-041-042-053>061-241500-
SOUTHWEST WISCONSIN

CITY           SKY/WX    TMP DP  RH WIND       PRES   REMARKS
LA CROSSE      SUNNY     75  65  70 SE6       30.02S
SPARTA         SUNNY     71  65  82 CALM      30.04F
VIROQUA        SUNNY     74  65  73 SE6       30.06S
BOSCOBEL       SUNNY     71  66  84 CALM      30.05S
PRAIRIE DU CHI SUNNY     72  62  71 E5        30.03F
PLATTEVILLE    SUNNY     74  66  75 SE6       30.07S
$$

WIZ056-057-062-063-064-067-068-241500-
SOUTH CENTRAL WISCONSIN

CITY           SKY/WX    TMP DP  RH WIND       PRES   REMARKS
REEDSBURG      SUNNY     73  66  76 CALM      30.06S
BARABOO/DELLS  SUNNY     75  63  66 S8        30.07S
LONE ROCK      SUNNY     72  67  84 E7        30.05S
MINERAL POINT  SUNNY     73  68  83 SE5       30.08R
MADISON        SUNNY     75  66  73 S8        30.07R
MIDDLETON      SUNNY     77  66  68 S6        30.08S
WATERTOWN      SUNNY     75  68  79 S3        30.08S
MONROE         SUNNY     72  63  73 S8        30.09R
JANESVILLE     SUNNY     75  64  69 S6        30.08S
$$

WIZ051-052-058>065-066-070>072-241500-
SOUTHEAST WISCONSIN

CITY           SKY/WX    TMP DP  RH WIND       PRES   REMARKS
MILWAUKEE      SUNNY     79  69  71 S3        30.09S HX  81
WAUKESHA       SUNNY     75  64  69 S3        30.11S
MILWAUKEE/TIMM SUNNY     75  63  64 S3        30.10S
RACINE         SUNNY     78  70  76 S5        30.11S HX  80
BURLINGTON     SUNNY     74  68  81 S3        30.09F
KENOSHA        SUNNY     78  67  68 S6        30.10S HAZE    HX  80
FOND DU LAC    SUNNY     76  65  68 S7        30.08S
SHEBOYGAN      SUNNY     73  71  93 S3        30.09S FOG
WEST BEND        N/A     73  68  83 CALM      30.09F
JUNEAU         SUNNY     73  66  79 SE3       30.09S
$$

LSZ147-162-241500-
LAKE SUPERIOR

STATION/POSITION TIME  TEMP    WIND        PRES    WAVE
                       AIR SEA DIR/SP/G            HT/PER
                 (UTC) (F)     (DEG/KT/KT) (MB)    (FT/S)
W MID LAKE BUOY  1350   58 55   50/  8/  8 1014.6F   1/ 3
DEVILS ISLAND    1400   63      90/  6/  7 1014.3F
SAXON HARBOR     1340   76     190/  5/  8 1014.6S
$$

LMZ867-665-643>646-241500-
LAKE MICHIGAN

STATION/POSITION TIME  TEMP    WIND        PRES    WAVE
                       AIR SEA DIR/SP/G            HT/PER
                 (UTC) (F)     (DEG/KT/KT) (MB)    (FT/S)
S GREEN BAY BUOY 1400   72 69  170/  6/  8 1018.1
N MID LAKE BUOY  1350   69 67  180/ 10/ 10 1019.2R   1
NORTHPORT PIER   1340   73     170/  7/ 10 1018.3S
KEWAUNEE LAKESHO 1348   65     180/  6/  8 1017.9S
SHEBOYGAN LAKESH 1400   71     170/ 10/ 11 1018.4R
PORT WASHINGTON  1340   76     160/  3/  4 1019.6S
ATWATER BUOY     1339   66     160/  4/  4 1019.1R
MILWAUKEE LAKESH 1350   72     110/  2/  3   N/A
S MID LAKE BUOY  1350   72 70  160/ 10/ 10 1019.0R   1/ 3
KENOSHA   LAKESH 1400   72     170/  5/  7 1019.0
$$

TC  - TEMPERATURE IN CELSIUS
VSB - VISIBILITY IN STATUTE MILES
WCI - WIND CHILL INDEX
HX  - HEAT INDEX




USA.gov is the U.S. government's official web portal to all federal, state and local government web resources and services.